FW8782 Weather Reports


time (UTC)temp
C
wind
direction
speed
KPH
gust
KPH
rain 1hr
cm
rain 24hr
cm
rain mn
cm
humidity
%
barometer
mb
20260507120037 9 0 0.0 0.0 0.00 0.00 0.00 81 1020.6
20260507115515 9 0 0.0 0.0 0.00 0.00 0.00 80 1020.7
20260507115014 9 0 0.0 0.0 0.00 0.00 0.00 80 1020.8
20260507114608 9 0 0.0 0.0 0.00 0.00 0.00 80 1020.8
20260507114015 9 0 0.0 0.0 0.00 0.00 0.00 80 1020.9
20260507113514 9 0 0.0 3.2 0.00 0.00 0.00 80 1020.8
20260507113034 9 0 0.0 3.2 0.00 0.00 0.00 80 1020.8
20260507112516 9 232 0.0 3.2 0.00 0.00 0.00 80 1020.9
20260507112014 9 0 0.0 0.0 0.00 0.00 0.00 80 1020.8
20260507111532 9 0 0.0 0.0 0.00 0.00 0.00 80 1020.8
20260507111014 9 0 0.0 0.0 0.00 0.00 0.00 80 1020.9
20260507110515 9 0 0.0 0.0 0.00 0.00 0.00 80 1020.8
20260507110032 10 0 0.0 0.0 0.00 0.00 0.00 80 1020.8
20260507105515 10 0 0.0 0.0 0.00 0.00 0.00 80 1020.9
20260507105015 10 0 0.0 0.0 0.00 0.00 0.00 80 1020.9
20260507104531 10 0 0.0 0.0 0.00 0.00 0.00 79 1020.9
20260507104016 10 0 0.0 3.2 0.00 0.00 0.00 79 1020.8
20260507103514 10 0 0.0 3.2 0.00 0.00 0.00 79 1021.0
20260507103033 10 0 0.0 0.0 0.00 0.00 0.00 79 1020.9
20260507102515 10 0 0.0 0.0 0.00 0.00 0.00 79 1021.1
20260507102018 10 0 0.0 0.0 0.00 0.00 0.00 79 1021.0
20260507101539 10 0 0.0 3.2 0.00 0.00 0.00 79 1021.0
20260507101021 10 0 0.0 1.6 0.00 0.00 0.00 79 1021.0
20260507100515 10 0 0.0 3.2 0.00 0.00 0.00 79 1021.0
20260507100045 10 0 0.0 4.8 0.00 0.00 0.00 78 1021.0
20260507095516 10 209 0.0 4.8 0.00 0.00 0.00 78 1020.9
20260507095015 10 0 0.0 6.4 0.00 0.00 0.00 78 1020.8
20260507094533 10 0 1.6 6.4 0.00 0.00 0.00 78 1020.8
20260507094015 10 230 0.0 6.4 0.00 0.00 0.00 78 1020.9
20260507093518 10 237 1.6 6.4 0.00 0.00 0.00 78 1021.0
20260507093031 10 238 0.0 3.2 0.00 0.00 0.00 78 1021.0
20260507092515 10 0 0.0 3.2 0.00 0.00 0.00 79 1021.1
20260507092016 10 0 0.0 3.2 0.00 0.00 0.00 79 1021.1
20260507091531 10 0 0.0 3.2 0.00 0.00 0.00 79 1021.1
20260507091015 10 221 0.0 3.2 0.00 0.00 0.00 79 1021.1
20260507090514 10 0 0.0 3.2 0.00 0.00 0.00 79 1021.3
20260507090033 10 227 1.6 4.8 0.00 0.00 0.00 79 1021.3
20260507085515 10 0 0.0 6.4 0.00 0.00 0.00 79 1021.3
20260507085015 10 0 1.6 6.4 0.00 0.00 0.00 79 1021.3
20260507084534 10 236 0.0 3.2 0.00 0.00 0.00 79 1021.4
20260507084014 10 0 0.0 3.2 0.00 0.00 0.00 79 1021.3
20260507083515 10 0 0.0 3.2 0.00 0.00 0.00 79 1021.4
20260507083044 10 0 0.0 3.2 0.00 0.00 0.00 79 1021.3
20260507082516 10 0 0.0 3.2 0.00 0.00 0.00 79 1021.4
20260507082016 10 0 0.0 4.8 0.00 0.00 0.00 79 1021.4
20260507081532 10 0 1.6 8.0 0.00 0.00 0.00 79 1021.3
20260507081016 10 0 1.6 8.0 0.00 0.00 0.00 78 1021.3
20260507080516 11 0 0.0 4.8 0.00 0.00 0.00 78 1021.3
20260507080031 11 193 0.0 4.8 0.00 0.00 0.00 78 1021.3
20260507075515 11 0 0.0 3.2 0.00 0.00 0.00 78 1021.3
20260507075014 11 245 0.0 6.4 0.00 0.00 0.00 78 1021.3
20260507074534 11 0 1.6 6.4 0.00 0.00 0.00 78 1021.3
20260507074015 11 217 0.0 6.4 0.00 0.00 0.00 78 1021.3
20260507073517 11 207 0.0 4.8 0.00 0.00 0.00 78 1021.2
20260507073035 11 232 0.0 3.2 0.00 0.00 0.00 78 1021.3
20260507072515 11 222 0.0 3.2 0.00 0.00 0.00 78 1021.2
20260507072013 11 222 0.0 3.2 0.00 0.00 0.00 78 1021.1
20260507071532 11 0 0.0 3.2 0.00 0.00 0.00 77 1021.3
20260507071015 11 0 0.0 3.2 0.00 0.00 0.00 77 1021.3
20260507070517 11 0 0.0 0.0 0.00 0.00 0.00 77 1021.2
20260507070040 11 0 0.0 3.2 0.00 0.00 0.00 77 1021.3
20260507065516 11 0 0.0 3.2 0.00 0.00 0.00 77 1021.1
20260507065016 11 0 0.0 3.2 0.00 0.00 0.00 77 1021.2
20260507064538 11 0 0.0 3.2 0.00 0.00 0.00 77 1021.2
20260507064015 11 0 0.0 3.2 0.00 0.00 0.00 77 1021.3
20260507063516 11 0 0.0 3.2 0.00 0.00 0.00 77 1021.1
20260507063034 11 0 0.0 3.2 0.00 0.00 0.00 77 1021.3
20260507062515 11 0 0.0 4.8 0.00 0.00 0.00 77 1021.3
20260507062014 11 0 0.0 8.0 0.00 0.00 0.00 77 1021.3
20260507061532 11 234 0.0 8.0 0.00 0.00 0.00 77 1021.3
20260507061018 11 0 0.0 0.0 0.00 0.00 0.00 77 1021.3
20260507060520 11 0 0.0 0.0 0.00 0.00 0.00 77 1021.3
20260507060032 11 0 0.0 0.0 0.00 0.00 0.00 77 1021.3
20260507055515 11 0 0.0 0.0 0.00 0.00 0.00 77 1021.3
20260507055015 11 0 0.0 3.2 0.00 0.00 0.00 77 1021.3
20260507054539 11 0 0.0 4.8 0.00 0.00 0.00 77 1021.3
20260507054015 11 234 0.0 6.4 0.00 0.00 0.00 77 1021.4
20260507053515 11 224 1.6 6.4 0.00 0.00 0.00 77 1021.4
20260507053034 11 235 1.6 6.4 0.00 0.00 0.00 77 1021.4
20260507052516 11 0 0.0 4.8 0.00 0.00 0.00 77 1021.4
20260507052016 11 236 1.6 6.4 0.00 0.00 0.00 77 1021.4
20260507051535 11 215 0.0 6.4 0.00 0.00 0.00 77 1021.4
20260507051015 11 0 0.0 4.8 0.00 0.00 0.00 77 1021.4
20260507050514 11 0 0.0 4.8 0.00 0.00 0.00 76 1021.3
20260507050039 11 242 0.0 8.0 0.00 0.00 0.00 76 1021.4
20260507045516 11 219 0.0 8.0 0.00 0.00 0.00 76 1021.4
20260507045013 11 234 3.2 8.0 0.00 0.00 0.00 76 1021.4
20260507044538 11 241 0.0 4.8 0.00 0.00 0.00 76 1021.4
20260507044015 11 262 0.0 3.2 0.00 0.00 0.00 76 1021.4
20260507043516 12 0 0.0 3.2 0.00 0.00 0.00 76 1021.4
20260507043030 12 0 0.0 6.4 0.00 0.00 0.00 76 1021.3
20260507042515 12 0 0.0 6.4 0.00 0.00 0.00 76 1021.2
20260507042017 12 240 1.6 4.8 0.00 0.00 0.00 76 1021.3
20260507041537 12 238 0.0 6.4 0.00 0.00 0.00 76 1021.1
20260507041015 12 232 0.0 8.0 0.00 0.00 0.00 76 1021.1
20260507040515 12 0 1.6 8.0 0.00 0.00 0.00 76 1021.1
20260507040032 12 0 0.0 3.2 0.00 0.00 0.00 76 1021.0
20260507035515 12 0 0.0 6.4 0.00 0.00 0.00 76 1021.0
20260507035016 12 0 0.0 6.4 0.00 0.00 0.00 76 1021.0
20260507034534 12 221 0.0 4.8 0.00 0.00 0.00 76 1021.0
20260507034015 12 0 1.6 6.4 0.00 0.00 0.00 76 1020.9
20260507033515 12 142 0.0 6.4 0.00 0.00 0.00 76 1021.0
20260507033035 12 317 0.0 3.2 0.00 0.00 0.00 76 1020.9
20260507032519 12 336 1.6 4.8 0.00 0.00 0.00 76 1020.9
20260507032016 12 231 0.0 6.4 0.00 0.00 0.00 76 1020.8
20260507031532 12 241 0.0 6.4 0.00 0.00 0.00 76 1020.8
20260507031015 12 207 1.6 6.4 0.00 0.00 0.00 76 1020.9
20260507030515 12 190 0.0 4.8 0.00 0.00 0.00 76 1020.9
20260507030033 12 226 0.0 4.8 0.00 0.00 0.00 76 1020.8
20260507025514 12 0 1.6 4.8 0.00 0.00 0.00 76 1020.8
20260507025015 12 229 1.6 4.8 0.00 0.00 0.00 76 1020.6
20260507024533 13 0 0.0 6.4 0.00 0.00 0.00 76 1020.6
20260507024015 13 0 1.6 6.4 0.00 0.00 0.00 77 1020.6
20260507023554 13 234 0.0 6.4 0.00 0.00 0.00 76 1020.6
20260507023039 13 0 0.0 6.4 0.00 0.00 0.00 76 1020.6
20260507022516 13 0 0.0 4.8 0.00 0.00 0.00 76 1020.6
20260507022014 13 229 1.6 4.8 0.00 0.00 0.00 76 1020.5
20260507021534 13 0 0.0 4.8 0.00 0.00 0.00 76 1020.6
20260507021018 13 0 0.0 3.2 0.00 0.00 0.00 76 1020.6
20260507020516 13 243 0.0 3.2 0.00 0.00 0.00 76 1020.6
20260507020034 13 312 0.0 3.2 0.00 0.00 0.00 76 1020.6
20260507015515 13 0 0.0 6.4 0.00 0.00 0.00 76 1020.6
20260507015016 13 0 0.0 6.4 0.00 0.00 0.00 75 1020.6
20260507014542 13 254 1.6 4.8 0.00 0.00 0.00 75 1020.6
20260507014016 13 291 1.6 8.0 0.00 0.00 0.00 75 1020.6
20260507013519 13 0 1.6 9.7 0.00 0.00 0.00 74 1020.6
20260507013032 13 243 0.0 9.7 0.00 0.00 0.00 75 1020.7
20260507012515 13 190 1.6 9.7 0.00 0.00 0.00 74 1020.6
20260507012016 13 221 1.6 9.7 0.00 0.00 0.00 74 1020.7
20260507011534 13 227 1.6 14.5 0.00 0.00 0.00 74 1020.7
20260507011015 14 181 0.0 14.5 0.00 0.00 0.00 74 1020.8
20260507010515 14 179 3.2 14.5 0.00 0.00 0.00 73 1020.8
20260507010032 14 219 1.6 6.4 0.00 0.00 0.00 73 1020.8
20260507005519 14 0 0.0 8.0 0.00 0.00 0.00 73 1020.7
20260507005015 14 0 1.6 11.3 0.00 0.00 0.00 73 1020.7
20260507004539 14 196 0.0 11.3 0.00 0.00 0.00 73 1020.6
20260507004016 14 0 1.6 11.3 0.00 0.00 0.00 72 1020.7
20260507003515 14 311 1.6 12.9 0.00 0.00 0.00 73 1020.7
20260507003033 15 210 3.2 12.9 0.00 0.00 0.00 72 1020.6
20260507002516 15 351 1.6 8.0 0.00 0.00 0.00 72 1020.7
20260507002015 14 234 1.6 11.3 0.00 0.00 0.00 73 1020.7
20260507001534 14 40 1.6 12.9 0.00 0.00 0.00 73 1020.7
20260507001016 15 225 3.2 12.9 0.00 0.00 0.00 74 1020.7
20260507000516 15 197 0.0 8.0 0.00 0.00 0.00 74 1020.8
20260507000032 15 266 1.6 8.0 0.00 0.00 0.00 74 1020.8
20260506235515 14 185 1.6 8.0 0.00 0.00 0.00 74 1020.7
20260506235015 14 206 1.6 8.0 0.00 0.00 0.00 76 1020.8
20260506234537 13 242 1.6 8.0 0.00 0.00 0.00 75 1021.0
20260506234016 13 350 1.6 6.4 0.00 0.00 0.00 75 1020.9
20260506233516 13 174 3.2 6.4 0.00 0.00 0.00 75 1021.0
20260506233032 13 202 0.0 6.4 0.00 0.00 0.00 76 1021.0
20260506232515 13 202 1.6 14.5 0.00 0.00 0.00 76 1020.9
20260506232015 13 227 3.2 14.5 0.00 0.00 0.00 76 1020.9
20260506231546 13 229 1.6 16.1 0.00 0.00 0.00 75 1020.9
20260506231015 13 198 3.2 16.1 0.00 0.00 0.00 75 1020.9
20260506230516 14 205 1.6 11.3 0.00 0.00 0.00 75 1020.9
20260506230037 14 219 1.6 11.3 0.00 0.00 0.00 75 1020.9
20260506225517 14 208 1.6 11.3 0.00 0.00 0.00 75 1020.9
20260506225013 14 103 1.6 12.9 0.00 0.00 0.00 75 1020.9
20260506224535 14 196 1.6 12.9 0.00 0.00 0.00 75 1020.9
20260506224016 14 348 1.6 9.7 0.00 0.00 0.00 76 1020.9
20260506223515 13 317 1.6 11.3 0.00 0.00 0.00 75 1020.9
20260506223045 13 230 3.2 16.1 0.00 0.00 0.00 75 1021.0
20260506222516 13 221 3.2 16.1 0.00 0.00 0.00 75 1021.0
20260506222016 13 153 3.2 6.4 0.00 0.00 0.00 75 1021.0
20260506221532 13 209 1.6 8.0 0.00 0.00 0.00 75 1021.1
20260506221019 13 237 1.6 8.0 0.00 0.00 0.00 75 1021.3
20260506220518 13 190 1.6 16.1 0.00 0.00 0.00 75 1021.3
20260506220036 13 186 1.6 16.1 0.00 0.00 0.00 76 1021.3
20260506215518 13 179 1.6 17.7 0.00 0.00 0.00 76 1021.1
20260506215014 13 112 6.4 17.7 0.00 0.00 0.00 75 1021.1
20260506214534 13 174 3.2 14.5 0.00 0.00 0.00 75 1021.1
20260506214014 13 173 4.8 16.1 0.00 0.00 0.00 75 1021.2
20260506213516 13 199 1.6 16.1 0.00 0.00 0.00 75 1021.1
20260506213038 13 25 3.2 14.5 0.00 0.00 0.00 75 1021.2
20260506212516 13 217 1.6 14.5 0.00 0.00 0.00 75 1021.3
20260506212015 13 76 1.6 14.5 0.00 0.00 0.00 75 1021.3
20260506211539 13 332 1.6 12.9 0.00 0.00 0.00 75 1021.3
20260506211015 13 237 3.2 12.9 0.00 0.00 0.00 76 1021.1
20260506210515 13 215 3.2 12.9 0.00 0.00 0.00 75 1021.2
20260506210036 13 236 3.2 12.9 0.00 0.00 0.00 75 1021.2
20260506205514 13 16 3.2 12.9 0.00 0.00 0.00 75 1021.1
20260506205014 13 198 1.6 16.1 0.00 0.00 0.00 76 1021.2
20260506204534 13 193 4.8 16.1 0.00 0.00 0.00 75 1021.4
20260506204014 13 257 1.6 12.9 0.00 0.00 0.00 75 1021.1
20260506203514 13 265 1.6 12.9 0.00 0.00 0.00 75 1021.1
20260506203034 13 244 1.6 8.0 0.00 0.00 0.00 76 1021.1
20260506202514 13 287 1.6 12.9 0.00 0.00 0.00 77 1021.1
20260506202016 13 222 3.2 12.9 0.00 0.00 0.00 77 1021.0
20260506201538 13 155 1.6 6.4 0.00 0.00 0.00 77 1021.0
20260506201012 13 167 1.6 6.4 0.00 0.00 0.00 76 1021.0
20260506200512 13 232 0.0 8.0 0.00 0.00 0.00 77 1021.1
20260506200033 13 182 3.2 11.3 0.00 0.00 0.00 77 1021.1
20260506195514 13 278 1.6 11.3 0.00 0.00 0.00 76 1020.9
20260506195016 13 203 3.2 11.3 0.00 0.00 0.00 76 1021.0
20260506194531 13 244 0.0 9.7 0.00 0.00 0.00 76 1020.9
20260506194010 13 333 3.2 9.7 0.00 0.00 0.00 76 1020.8
20260506193514 13 0 0.0 9.7 0.00 0.00 0.00 77 1020.9
20260506193034 13 325 3.2 9.7 0.00 0.00 0.00 77 1020.9
20260506192511 13 235 3.2 8.0 0.00 0.00 0.00 77 1020.9
20260506192013 13 240 0.0 8.0 0.00 0.00 0.00 77 1021.0
20260506191530 12 210 1.6 8.0 0.00 0.00 0.00 78 1020.9
20260506191016 12 317 0.0 12.9 0.00 0.00 0.00 77 1020.8
20260506190516 12 235 1.6 14.5 0.00 0.00 0.00 77 1020.7
20260506190031 13 240 3.2 14.5 0.00 0.00 0.00 77 1020.8
20260506185511 13 238 1.6 6.4 0.00 0.00 0.00 77 1020.9
20260506185018 13 242 0.0 3.2 0.00 0.00 0.00 77 1020.9
20260506184534 12 164 0.0 11.3 0.00 0.00 0.00 78 1020.9
20260506184014 12 0 3.2 11.3 0.00 0.00 0.00 76 1020.7
20260506183514 12 199 1.6 9.7 0.00 0.00 0.00 76 1020.8
20260506183040 12 238 1.6 4.8 0.00 0.00 0.00 77 1020.9
20260506182513 13 236 0.0 6.4 0.00 0.00 0.00 77 1020.8
20260506182014 13 184 1.6 11.3 0.00 0.00 0.00 76 1020.9
20260506181532 13 212 1.6 12.9 0.00 0.00 0.00 76 1020.8
20260506181011 13 35 3.2 12.9 0.00 0.00 0.00 76 1020.7
20260506180511 13 264 1.6 14.5 0.00 0.00 0.00 76 1020.5
20260506180035 13 254 3.2 14.5 0.00 0.00 0.00 76 1020.5
20260506175517 13 188 3.2 11.3 0.00 0.00 0.00 76 1020.4
20260506175013 13 225 1.6 11.3 0.00 0.00 0.00 76 1020.5
20260506174531 13 217 3.2 9.7 0.00 0.00 0.00 76 1020.6
20260506174011 13 286 3.2 14.5 0.00 0.00 0.00 76 1020.6
20260506173514 13 202 3.2 14.5 0.00 0.00 0.00 75 1020.4
20260506173031 13 234 4.8 14.5 0.00 0.00 0.00 75 1020.4
20260506172511 13 175 0.0 4.8 0.00 0.00 0.00 77 1020.3
20260506172015 13 32 1.6 4.8 0.00 0.00 0.00 77 1020.4
20260506171538 13 182 0.0 8.0 0.00 0.00 0.00 76 1020.4
20260506171017 12 234 3.2 8.0 0.00 0.00 0.00 76 1020.5
20260506170510 12 171 1.6 6.4 0.00 0.00 0.00 76 1020.4
20260506170034 12 217 1.6 6.4 0.00 0.00 0.00 77 1020.5
20260506165516 12 221 1.6 6.4 0.00 0.00 0.00 77 1020.6
20260506165016 12 330 1.6 11.3 0.00 0.00 0.00 77 1020.6
20260506164532 12 0 1.6 11.3 0.00 0.00 0.00 77 1020.4
20260506164021 12 327 3.2 11.3 0.00 0.00 0.00 77 1020.5
20260506163514 12 101 1.6 6.4 0.00 0.00 0.00 78 1020.5
20260506163034 12 183 1.6 8.0 0.00 0.00 0.00 78 1020.5
20260506162518 12 281 0.0 8.0 0.00 0.00 0.00 78 1020.3
20260506162021 12 0 0.0 6.4 0.00 0.00 0.00 78 1020.3
20260506161534 12 198 0.0 3.2 0.00 0.00 0.00 78 1020.3
20260506161018 12 219 1.6 6.4 0.00 0.00 0.00 79 1020.2
20260506160517 12 248 0.0 6.4 0.00 0.00 0.00 78 1020.1
20260506160034 12 154 1.6 3.2 0.00 0.00 0.00 78 1020.1
20260506155517 12 0 0.0 4.8 0.00 0.00 0.00 78 1020.0
20260506155014 12 0 0.0 6.4 0.00 0.00 0.00 78 1020.1
20260506154534 12 216 3.2 6.4 0.00 0.00 0.00 79 1020.0
20260506154016 12 202 0.0 6.4 0.00 0.00 0.00 79 1019.9
20260506153513 12 217 3.2 6.4 0.00 0.00 0.00 79 1020.1
20260506153034 12 210 0.0 4.8 0.00 0.00 0.00 80 1019.9
20260506152516 12 0 0.0 3.2 0.00 0.00 0.00 79 1020.0
20260506152015 11 239 0.0 4.8 0.00 0.00 0.00 79 1020.1
20260506151534 11 279 0.0 4.8 0.00 0.00 0.00 80 1020.0
20260506151016 11 255 0.0 9.7 0.00 0.00 0.00 80 1020.0
20260506150517 11 0 1.6 9.7 0.00 0.00 0.00 80 1020.1
20260506150034 11 0 1.6 4.8 0.00 0.00 0.00 80 1020.0
20260506145516 11 0 0.0 4.8 0.00 0.00 0.00 81 1020.2
20260506145016 11 237 1.6 4.8 0.00 0.00 0.00 81 1020.1
20260506144538 11 218 0.0 3.2 0.00 0.00 0.00 81 1019.8
20260506144015 11 0 0.0 3.2 0.00 0.00 0.00 81 1019.9
20260506143517 11 0 0.0 3.2 0.00 0.00 0.00 82 1019.8
20260506143034 11 0 0.0 3.2 0.00 0.00 0.00 82 1019.8
20260506142518 11 235 0.0 9.7 0.00 0.00 0.00 82 1019.8
20260506142019 11 212 0.0 9.7 0.00 0.00 0.00 82 1019.8
20260506141534 11 322 1.6 6.4 0.00 0.00 0.00 82 1019.6
20260506141016 11 240 0.0 6.4 0.00 0.00 0.00 82 1019.3
20260506140516 11 240 1.6 6.4 0.00 0.00 0.00 82 1019.6
20260506140030 11 273 1.6 6.4 0.00 0.00 0.00 82 1019.7
20260506135515 11 281 1.6 6.4 0.00 0.00 0.00 82 1019.7
20260506135015 11 0 1.6 6.4 0.00 0.00 0.00 83 1019.5
20260506134538 11 216 0.0 4.8 0.00 0.00 0.00 83 1019.4
20260506134011 11 217 1.6 4.8 0.00 0.00 0.00 83 1019.5
20260506133514 11 0 0.0 6.4 0.00 0.00 0.00 83 1019.4
20260506133029 10 217 0.0 6.4 0.00 0.00 0.00 83 1019.5
20260506132514 10 223 0.0 3.2 0.00 0.00 0.00 83 1019.4
20260506132020 11 0 0.0 3.2 0.00 0.00 0.00 83 1019.5
20260506131534 10 0 0.0 4.8 0.00 0.00 0.00 83 1019.5
20260506131011 10 162 1.6 3.2 0.00 0.00 0.00 83 1019.3
20260506130517 10 0 0.0 4.8 0.00 0.00 0.00 83 1019.4
20260506130030 10 277 0.0 6.4 0.00 0.00 0.00 83 1019.3
20260506125515 10 283 1.6 8.0 0.00 0.00 0.00 83 1019.2
20260506125015 10 0 1.6 8.0 0.00 0.00 0.00 83 1019.0
20260506124532 10 0 0.0 8.0 0.00 0.00 0.00 83 1019.0
20260506124011 10 244 0.0 4.8 0.00 0.00 0.00 83 1019.1
20260506123514 11 217 1.6 4.8 0.00 0.00 0.00 83 1019.1
20260506123034 11 281 0.0 6.4 0.00 0.00 0.00 83 1019.0
20260506122514 11 221 0.0 6.4 0.00 0.00 0.00 83 1019.1
20260506122017 11 235 0.0 6.4 0.00 0.00 0.00 83 1018.9
20260506121532 11 0 1.6 4.8 0.00 0.00 0.00 83 1018.9
20260506121014 11 232 0.0 11.3 0.00 0.00 0.00 83 1018.9
20260506120517 11 258 1.6 11.3 0.00 0.00 0.00 83 1018.9